Location: Karwodrza
(49.9217°N, 21.0454°E)
Time: 07:31:05
(UTC+02:00)

ISS - Pass Details

Date: 25 January 2019
Orbit: 411 x 421 km, 51.6° (Epoch: 16 October)

Event Time Altitude Azimuth Distance (km) Brightness Sun altitude
Rises 18:18:49 0° 239° (WSW) 2,365 1.2 -19.2°
Reaches altitude 10° 18:20:55 10° 236° (SW) 1,504 0.0 -19.6°
Enters shadow 18:24:06 59° 171° (S) 495 -3.5 -20.1°
